This demonstration page uses our WeatherBlox Daily Observations layout. Learn more.

Left ArrowRight Arrow

39.29038, -76.61219

Hourly Observations for April 27, 2022

Temp ( °F °C ) Dew Point ( °F °C ) Humidity (%) Winds ( mph kmh ) Pressure ( in mb ) Visibility ( mi km ) Precip ( " mm )
12:54 am 00:54 Partly Cloudy 55 12.8 49 9.4 80 80 W 7 11 30.05 1018 10 16 0.00 0.00
1:54 am 01:54 Mostly Clear 52 11.1 41 5 66 66 W 8 13 30.05 1018 10 16 0.00 0.00
2:54 am 02:54 Mostly Clear 51 10.6 36 2.2 56 56 W 16 26 30.05 1018 10 16 0.00 0.00
3:54 am 03:54 Mostly Clear 50 10 35 1.7 57 57 WNW 14 22 30.06 1018 10 16 0.00 0.00
4:54 am 04:54 Partly Cloudy 49 9.4 34 1.1 56 56 W 12 19 30.07 1018 10 16 0.00 0.00
5:54 am 05:54 Partly Cloudy 46 7.8 32 0 58 58 W 12 19 30.08 1019 10 16 0.00 0.00
6:54 am 06:54 Mostly Sunny 46 7.8 31 -0.6 56 56 W 9 15 30.09 1019 10 16 0.00 0.00
7:54 am 07:54 Sunny 49 9.4 30 -1.1 48 48 W 10 17 30.09 1019 10 16 0.00 0.00
8:54 am 08:54 Mostly Sunny 52 11.1 29 -1.7 41 41 NW 15 24 30.08 1019 10 16 0.00 0.00
9:54 am 09:54 Partly Cloudy 54 12.2 30 -1.1 40 40 WNW 16 26 30.07 1018 10 16 0.00 0.00
10:54 am 10:54 Partly Cloudy 55 12.8 30 -1.1 38 38 NW 17 28 30.06 1018 10 16 0.00 0.00
11:54 am 11:54 Mostly Cloudy 58 14.4 32 0 38 38 NW 22 35 30.06 1018 10 16 0.00 0.00
12:54 pm 12:54 Cloudy 56 13.3 31 -0.6 39 39 WNW 16 26 30.04 1017 10 16 0.00 0.00
1:54 pm 13:54 Mostly Cloudy 58 14.4 30 -1.1 35 35 WNW 21 33 30.03 1017 10 16 0.00 0.00
2:54 pm 14:54 Partly Cloudy 58 14.4 30 -1.1 35 35 WNW 23 37 30.02 1017 10 16 0.00 0.00
3:54 pm 15:54 Mostly Cloudy 59 15 30 -1.1 33 33 WNW 13 20 30.01 1016 10 16 0.00 0.00
4:54 pm 16:54 Mostly Cloudy 59 15 28 -2.2 31 31 NNW 17 28 30.01 1016 10 16 0.00 0.00
5:54 pm 17:54 Mostly Sunny 57 13.9 27 -2.8 32 32 NNW 20 31 30.02 1017 10 16 0.00 0.00
6:54 pm 18:54 Mostly Sunny 55 12.8 26 -3.3 33 33 NW 14 22 30.04 1017 10 16 0.00 0.00
7:54 pm 19:54 Mostly Sunny 51 10.6 26 -3.3 38 38 NNW 9 15 30.07 1018 10 16 0.00 0.00
8:54 pm 20:54 Clear 48 8.9 26 -3.3 42 42 NNW 13 20 30.09 1019 10 16 0.00 0.00
9:54 pm 21:54 Clear 46 7.8 24 -4.4 42 42 NW 9 15 30.11 1020 10 16 0.00 0.00
10:54 pm 22:54 Clear 44 6.7 24 -4.4 45 45 NNW 9 15 30.12 1020 10 16 0.00 0.00
11:54 pm 23:54 Clear 43 6.1 24 -4.4 47 47 NW 9 15 30.13 1020 10 16 0.00 0.00

Powered by AerisWeather